Regional Weather Roundup
Issued by NWS

Home | Current Version | Previous Version | Text Only | Print | Product List | Glossary Off
Versions: 1 2 3 4 5 6 7 8 9 10 11 12 13 14 15 16 17 18 19 20 21 22 23 24 25 26 27 28 29 30 31 32 33 34 35 36 37 38 39 40 41 42 43 44 45 46 47 48 49 50

000
ASUS45 KCYS 291010
RWRWY

WYOMING REGIONAL WEATHER ROUNDUP
NATIONAL WEATHER SERVICE CHEYENNE WY
400 AM MDT TUE JUL 29 2014

NOTE:  "FAIR" INDICATES FEW OR NO CLOUDS BELOW 12,000 FEET
WITH NO SIGNIFICANT WEATHER AND/OR OBSTRUCTIONS TO VISIBILITY.

WYZ001-291100-
YELLOWSTONE NATIONAL PARK

CITY           SKY/WX    TMP DP  RH WIND       PRES   REMARKS
LK YELLOWSTONE   N/A     54  47  77 CALM      30.48F
W YELLOWSTONE  NOT AVBL

$$
WYZ002>013-054>058-071-098>099-291100-
NORTHERN WYOMING

CITY           SKY/WX    TMP DP  RH WIND       PRES   REMARKS
JACKSON        CLOUDY    64  46  52 N3        30.33S
CODY           NOT AVBL
GREYBULL       CLOUDY    78  45  30 NW15      30.17F
WORLAND        CLOUDY    66  54  65 SW3       30.19F
SHERIDAN       CLOUDY    65  56  72 SW3       30.23F
BUFFALO        CLOUDY    69  46  43 W6        30.28F
GILLETTE       RAIN      61  58  90 S16       30.28F
HULETT         FAIR      54  52  94 MISG      30.29
NEWCASTLE      RAIN      59  55  88 S6        30.29

$$
WYZ014>020-022>026-101>103-291100-
CENTRAL WYOMING

CITY           SKY/WX    TMP DP  RH WIND       PRES   REMARKS
BIG PINEY      CLOUDY    63  43  48 SW5       30.35R
PINEDALE       CLOUDY    57  45  62 NW5       30.35S
DUBOIS         CLOUDY    63  37  39 E8        30.37S
LANDER         CLOUDY    69  44  40 NW7       30.26S
RIVERTON       CLOUDY    70  44  39 N13       30.26F
CASPER         MOCLDY    63  51  65 NE9       30.27F
DOUGLAS        PTCLDY    59  52  77 NE5       30.26R

$$
WYZ021-027>030-104>119-291100-
SOUTHERN WYOMING

CITY           SKY/WX    TMP DP  RH WIND       PRES   REMARKS
EVANSTON       CLOUDY    57  55  93 W6        30.36F
FORT BRIDGER   CLOUDY    63  52  67 SW6       30.38R
ROCK SPRINGS   CLOUDY    66  45  46 W10       30.32S
DIXON          PTSUNNY   64  48  57 CALM      30.37R
RAWLINS        CLOUDY    66  47  50 SW6       30.32F
SARATOGA       FAIR      59  46  63 CALM      30.36F
LARAMIE        MOCLDY    57  52  83 SE7       30.36S
CHEYENNE       PTCLDY    57  51  80 W6        30.30F
TORRINGTON     PTCLDY    59  56  89 E8        30.20S
PINE BLUFFS    FAIR      55  54  94 CALM      30.26S

$$


USA.gov is the U.S. government's official web portal to all federal, state and local government web resources and services.